Wind_Speed
69 66 61 56 54 51 50 48 46 46 46 44 43 39 41 43 45 45 41 35 34 36 38 43 45 50 55
71 71 65 61 58 56 53 51 48 47 47 45 43 41 44 42 43 39 32 33 34 34 39 40 44 51 55
73 73 69 64 60 58 56 52 51 49 47 45 47 45 42 42 38 31 29 31 31 33 36 40 46 51 52
76 76 73 66 61 60 56 55 54 50 49 50 46 41 41 35 33 26 27 29 28 31 33 42 48 49 48
66 67 70 70 62 60 50 55 56 53 51 48 44 40 36 34 29 21 25 25 27 30 34 42 46 44 45
84 72 73 68 65 61 63 63 55 54 50 45 43 38 31 34 25 21 24 25 27 29 35 41 40 43 40
75 71 66 66 55 51 54 55 47 50 49 42 42 39 39 35 24 24 25 24 26 30 35 36 39 37 35
74 74 68 69 60 60 54 51 52 49 43 45 43 42 38 30 24 25 23 22 24 28 34 33 35 32 32
65 76 74 66 65 55 54 53 46 45 45 46 41 37 35 27 27 23 19 22 25 28 30 30 30 29 28
50 68 76 68 63 61 57 54 47 46 43 45 44 38 30 27 23 18 17 22 25 29 27 27 25 25 25
57 53 74 69 61 64 57 55 52 49 48 47 41 35 26 23 17 15 19 22 26 26 24 23 22 22 22
63 61 53 54 45 51 64 60 52 50 46 44 37 34 29 24 18 15 23 24 25 22 20 19 18 18 19
71 60 54 57 53 54 59 58 56 50 48 43 39 32 28 24 17 24 28 25 25 19 17 17 16 15 16
71 66 67 67 63 61 57 56 55 53 51 47 38 34 32 24 25 28 29 24 21 14 14 15 13 12 13
73 68 63 60 63 56 55 56 54 53 52 48 43 42 34 28 25 30 23 22 18 13 13 15 13 11 11
68 66 65 60 64 63 62 60 55 54 54 50 49 46 41 32 32 29 23 20 16 13 13 13 13 11 11
73 64 69 63 65 64 62 58 57 58 58 55 48 43 33 31 32 27 24 19 17 13 12 11 12 10 10
Wind_Direction
238 241 242 244 250 252 256 261 266 271 275 279 284 289 300 298 305 313 318 317 316 322 329 334 339 344 344
237 241 242 242 246 252 255 260 262 267 272 277 282 285 292 297 304 311 315 314 313 326 330 337 342 346 344
236 241 243 244 242 248 253 257 261 265 268 273 279 284 288 295 303 308 312 311 320 330 335 342 345 346 345
235 238 242 244 247 247 249 253 259 262 266 270 277 279 286 292 301 305 311 312 325 330 342 344 344 344 344
238 238 244 249 244 247 250 251 256 259 264 269 271 279 281 293 297 295 307 315 324 329 345 340 342 344 344
239 240 243 245 247 247 248 253 252 259 261 262 268 273 286 292 286 285 304 316 318 336 340 339 341 343 346
230 231 238 237 245 246 246 247 252 254 257 258 261 264 277 285 273 280 298 309 318 333 334 339 339 343 349
229 230 232 237 238 243 242 243 245 248 257 258 259 266 276 269 267 280 294 304 320 329 331 337 337 343 353
231 228 231 238 233 241 239 242 242 247 255 250 262 266 270 256 264 274 290 308 318 322 329 334 337 344 355
230 227 227 229 240 237 232 241 240 243 244 256 264 264 248 252 256 263 288 302 312 316 327 332 335 344 358
229 232 229 229 238 236 235 237 242 246 251 254 255 247 237 247 247 257 282 295 305 312 325 326 337 341 358
226 218 228 226 233 234 232 236 238 239 242 244 240 229 231 238 243 260 274 284 295 308 319 319 330 337 356
220 216 219 215 223 228 230 231 235 237 240 235 223 220 228 234 236 260 265 279 292 309 310 316 323 330 352
215 221 218 219 223 229 226 227 230 237 233 227 216 220 226 234 248 244 258 276 287 298 302 302 309 319 344
213 214 217 217 220 219 225 225 228 231 225 219 216 222 224 225 223 245 259 269 283 293 294 296 305 317 327
209 210 215 216 217 215 222 224 222 222 217 219 220 218 225 213 224 243 257 265 279 282 279 290 301 313 320
206 210 213 214 217 217 213 215 219 217 212 209 209 214 197 213 228 240 251 259 272 263 269 279 294 304 318
Height
5782 5790 5796 5803 5807 5812 5815 5819 5822 5823 5824 5823 5823 5822 5821 5818 5815 5813 5809 5804 5800 5793 5789 5782 5775 5767 5758
5770 5776 5785 5791 5795 5801 5806 5810 5813 5814 5815 5815 5815 5815 5815 5812 5808 5806 5804 5800 5794 5789 5784 5778 5771 5762 5753
5758 5764 5771 5779 5785 5790 5795 5800 5803 5805 5806 5806 5808 5808 5809 5805 5802 5801 5799 5793 5790 5784 5780 5773 5766 5757 5749
5744 5751 5759 5765 5772 5779 5785 5789 5793 5795 5797 5798 5800 5801 5801 5798 5796 5796 5794 5790 5785 5780 5774 5768 5762 5754 5747
5732 5740 5748 5753 5763 5769 5773 5778 5782 5785 5787 5789 5791 5793 5793 5792 5791 5791 5789 5785 5780 5777 5768 5763 5759 5752 5745
5719 5730 5737 5743 5750 5757 5763 5767 5773 5775 5777 5780 5784 5785 5786 5786 5785 5785 5783 5780 5776 5770 5764 5760 5756 5750 5743
5705 5717 5725 5734 5741 5745 5752 5756 5761 5763 5767 5772 5775 5778 5779 5779 5779 5780 5779 5775 5771 5766 5761 5757 5754 5748 5740
5690 5702 5712 5719 5726 5732 5739 5741 5747 5755 5760 5763 5766 5769 5771 5772 5774 5774 5773 5769 5765 5760 5757 5754 5750 5745 5737
5671 5683 5694 5703 5712 5719 5725 5732 5740 5747 5749 5752 5756 5759 5763 5764 5767 5768 5768 5765 5760 5755 5753 5750 5746 5742 5735
5653 5664 5676 5689 5697 5707 5713 5722 5728 5735 5739 5744 5746 5751 5754 5756 5759 5760 5760 5758 5755 5751 5748 5745 5742 5740 5734
5639 5647 5660 5673 5684 5693 5701 5711 5718 5724 5729 5732 5737 5742 5747 5749 5751 5752 5753 5750 5748 5746 5744 5740 5738 5735 5730
5622 5633 5646 5658 5669 5678 5688 5697 5705 5712 5716 5721 5726 5732 5738 5741 5744 5745 5745 5744 5742 5740 5738 5734 5733 5730 5725
5608 5622 5633 5644 5654 5664 5674 5682 5691 5698 5704 5711 5715 5723 5729 5732 5735 5738 5738 5738 5736 5735 5733 5731 5729 5725 5722
5594 5606 5616 5628 5639 5650 5660 5669 5678 5686 5693 5700 5706 5715 5720 5723 5728 5730 5731 5731 5731 5728 5726 5725 5724 5720 5719
5576 5589 5601 5611 5623 5636 5647 5657 5665 5674 5682 5689 5697 5704 5711 5714 5718 5721 5723 5723 5722 5721 5720 5720 5719 5715 5713
5560 5574 5588 5596 5611 5622 5633 5644 5653 5662 5671 5679 5687 5694 5700 5705 5709 5713 5714 5716 5715 5714 5713 5713 5713 5710 5709
5543 5558 5574 5584 5597 5609 5621 5631 5640 5650 5660 5668 5676 5684 5691 5695 5700 5703 5706 5707 5707 5707 5706 5705 5706 5704 5704